User: anonymous   Login
Location: Bittelbronn
(48.4454°N, 8.5870°E)
Time: 14:40:41
(UTC+00:00)
Language:

YAOGAN 6 - Orbit

View from above orbital plane
View from above orbital plane
View from above satellite
View from above satellite

Ground track
Ground track

The orbit data is extracted from the following two-line orbital elements,

1 34839U 09021A   24196.18373541  .00024018  00000-0  43687-3 0  9999
2 34839  97.1711 163.4935 0019401  83.0125 277.3333 15.49303963847639
Epoch (UTC): 14 July 2024 04:24:34
Eccentricity: 0.0019401
inclination: 97.1711°
perigee height: 405 km
apogee height: 432 km
right ascension of ascending node: 163.4935°
argument of perigee: 83.0125°
revolutions per day: 15.49303963
mean anomaly at epoch: 277.3333°
orbit number at epoch: 84763

The dashed part of the orbit path shows where the satellite is in the earth's shadow,  

DLR